Location: *
(43.7000°S, 168.7000°W)
Time: 14:40:36
(UTC+00:00)

BREEZE-M R/B - Pass Details

Date: 07 July 2020
Orbit: 311 x 4532 km, 49.7° (Epoch: 03 August)

Event Time Altitude Azimuth Distance (km) Brightness Sun altitude
Exits shadow 15:55:31 80° 228° (SW) 1,120 4.1 -30.3°
Maximum altitude 15:55:42 81° 203° (SSW) 1,134 4.1 -30.3°
Drops below altitude 10° 16:07:04 10° 115° (ESE) 4,775 8.3 -28.2°
Sets 16:12:24 0° 113° (ESE) 6,520 9.2 -27.3°
